Location: Eschertshofen
(49.3064°N, 11.5756°E)
Time: 13:12:30
(UTC+00:00)

NOSS 2-2 (D) - Pass Details

Date: 18 September 2020
Orbit: 462 x 1746 km, 63.3° (Epoch: 14 October)

Event Time Altitude Azimuth Distance (km) Brightness Sun altitude
Rises 19:21:07 0° 230° (SW) 2,481 7.0 -19.8°
Reaches altitude 10° 19:23:08 10° 233° (SW) 1,621 6.0 -20.1°
Maximum altitude 19:26:36 63° 315° (NW) 562 3.5 -20.6°
Drops below altitude 10° 19:30:38 10° 38° (NE) 1,885 5.9 -21.2°
Enters shadow 19:32:06 - 41° (NE) 2,504 6.6 -21.4°
